sat.trackr.live / text

‹ back to catalog

STARLINK-30357

NORAD 57750 · 2023-131U

PAYLOAD ACTIVE UNKNOWN

§ Identity

Operator
Country
US
Launch date
2023-09-01
Launch site
AFETR
Launch vehicle
Mass (kg)
RCS (m²)

Purposes: comms

External: N2YO · Heavens-Above · Gunter

§ Orbital elements

Epoch: 2026-09-20T02:41:03.643872Z

Period
94.27 min
Inclination
43.0050°
Eccentricity
0.0001303
Mean motion
15.27583969 rev/d
Perigee alt
482.1 km
Apogee alt
483.9 km
Semi-major
6,861.2 km
B*
4.2541e-5
RAAN
161.8766°
Arg perigee
265.0129°
Mean anomaly
95.0574°
Rev number
16,955

§ Raw data

STARLINK-303571 57750U 23131U   26263.11184773  .00000909  00000+0  42541-4 0  99922 57750  43.0050 161.8766 0001303 265.0129  95.0574 15.27583969169556

JSON: /api/v1/satellites/57750 · /tle

For live sub-satellite position, see the globe view (requires WebGL).

§ Visibility from observer

Set your observer location to see the next 7 days of passes ≥ 10°. The values pass through the URL so the page stays shareable.

No JS? Fill the form by hand. The geolocation button needs JavaScript.